Location: Borovka
(49.7741°N, 14.5280°E)
Time: 17:52:55
(UTC+00:00)

Okean 1 Rocket - Pass Details

Date: 17 November 2025
Orbit: 599 x 628 km, 82.5° (Epoch: 10 December)

Event Time Altitude Azimuth Distance (km) Brightness Sun altitude
Rises 17:45:18 0° 190° (S) 2,890 6.6 -23.8°
Reaches altitude 10° 17:47:31 10° 191° (S) 1,985 5.8 -24.2°
Enters shadow 17:51:42 79° 223° (SW) 636 3.0 -24.9°
